Time,TemperatureF,DewpointF,PressureIn,WindDirection,WindDirectionDegrees,WindSpeedMPH,WindSpeedGustMPH,Humidity,HourlyPrecipIn,Conditions,Clouds,dailyrainin,SoftwareType,DateUTC
2013-01-08 00:04:00,34.0,25.0,30.36,SSE,148,0.0,-999.0,70,-99.99,,,-99.99,,2013-01-08 05:04:00,
2013-01-08 00:12:00,34.0,25.0,30.36,SSE,148,0.0,-999.0,70,-99.99,,,-99.99,,2013-01-08 05:12:00,
2013-01-08 00:22:00,33.0,25.0,30.35,SSE,148,0.0,-999.0,72,-99.99,,,-99.99,,2013-01-08 05:22:00,
2013-01-08 00:33:00,33.0,25.0,30.35,SSE,148,0.0,-999.0,72,-99.99,,,-99.99,,2013-01-08 05:33:00,
2013-01-08 00:43:00,33.0,25.0,30.35,SSE,148,0.0,-999.0,72,-99.99,,,-99.99,,2013-01-08 05:43:00,
2013-01-08 00:53:00,34.0,27.0,30.34,South,188,1.0,-999.0,75,-99.99,,,-99.99,,2013-01-08 05:53:00,
2013-01-08 01:03:00,34.0,28.0,30.35,South,188,0.0,-999.0,77,-99.99,,,-99.99,,2013-01-08 06:03:00,
2013-01-08 01:12:00,34.0,28.0,30.35,South,188,0.0,-999.0,77,-99.99,,,-99.99,,2013-01-08 06:12:00,
2013-01-08 01:22:00,34.0,27.0,30.35,South,188,0.0,-999.0,76,-99.99,,,-99.99,,2013-01-08 06:22:00,
2013-01-08 01:33:00,34.0,27.0,30.35,South,188,0.0,-999.0,76,-99.99,,,-99.99,,2013-01-08 06:33:00,
2013-01-08 01:42:00,34.0,27.0,30.35,South,188,0.0,-999.0,76,-99.99,,,-99.99,,2013-01-08 06:42:00,
2013-01-08 01:52:00,34.0,27.0,30.35,South,171,0.0,-999.0,75,-99.99,,,-99.99,,2013-01-08 06:52:00,
2013-01-08 02:02:00,35.0,28.0,30.35,South,171,0.0,-999.0,74,-99.99,,,-99.99,,2013-01-08 07:02:00,
2013-01-08 02:12:00,35.0,28.0,30.35,South,171,0.0,-999.0,74,-99.99,,,-99.99,,2013-01-08 07:12:00,
2013-01-08 02:22:00,34.0,26.0,30.35,South,171,0.0,-999.0,73,-99.99,,,-99.99,,2013-01-08 07:22:00,
2013-01-08 02:32:00,34.0,27.0,30.35,South,171,1.0,-999.0,74,-99.99,,,-99.99,,2013-01-08 07:32:00,
2013-01-08 02:42:00,34.0,27.0,30.35,South,171,1.0,-999.0,74,-99.99,,,-99.99,,2013-01-08 07:42:00,
2013-01-08 02:52:00,34.0,26.0,30.35,South,171,0.0,-999.0,73,-99.99,,,-99.99,,2013-01-08 07:52:00,
2013-01-08 03:02:00,34.0,26.0,30.35,South,171,0.0,-999.0,73,-99.99,,,-99.99,,2013-01-08 08:02:00,
2013-01-08 03:12:00,34.0,26.0,30.35,South,171,0.0,-999.0,73,-99.99,,,-99.99,,2013-01-08 08:12:00,
2013-01-08 03:22:00,34.0,26.0,30.34,South,171,1.0,-999.0,72,-99.99,,,-99.99,,2013-01-08 08:22:00,
2013-01-08 03:32:00,34.0,26.0,30.34,South,171,1.0,-999.0,73,-99.99,,,-99.99,,2013-01-08 08:32:00,
2013-01-08 03:42:00,34.0,26.0,30.34,South,171,1.0,-999.0,73,-99.99,,,-99.99,,2013-01-08 08:42:00,
2013-01-08 03:52:00,34.0,27.0,30.33,South,171,1.0,-999.0,74,-99.99,,,-99.99,,2013-01-08 08:52:00,
2013-01-08 04:02:00,34.0,27.0,30.33,South,171,1.0,-999.0,75,-99.99,,,-99.99,,2013-01-08 09:02:00,
2013-01-08 04:12:00,34.0,27.0,30.33,South,171,1.0,-999.0,75,-99.99,,,-99.99,,2013-01-08 09:12:00,
2013-01-08 04:22:00,34.0,27.0,30.33,South,171,1.0,-999.0,75,-99.99,,,-99.99,,2013-01-08 09:22:00,
2013-01-08 04:33:00,34.0,27.0,30.33,SSW,192,2.0,-999.0,75,-99.99,,,-99.99,,2013-01-08 09:33:00,
2013-01-08 04:42:00,34.0,27.0,30.33,SSW,192,2.0,-999.0,75,-99.99,,,-99.99,,2013-01-08 09:42:00,
2013-01-08 04:52:00,34.0,27.0,30.33,SSE,166,1.0,-999.0,75,-99.99,,,-99.99,,2013-01-08 09:52:00,
2013-01-08 05:02:00,33.0,26.0,30.32,SSE,166,1.0,-999.0,76,-99.99,,,-99.99,,2013-01-08 10:02:00,
2013-01-08 05:12:00,33.0,26.0,30.32,SSE,166,1.0,-999.0,76,-99.99,,,-99.99,,2013-01-08 10:12:00,
2013-01-08 05:22:00,33.0,27.0,30.32,SSE,166,1.0,-999.0,77,-99.99,,,-99.99,,2013-01-08 10:22:00,
2013-01-08 05:33:00,33.0,27.0,30.33,SSE,166,0.0,-999.0,78,-99.99,,,-99.99,,2013-01-08 10:33:00,
2013-01-08 05:42:00,33.0,27.0,30.33,SSE,166,0.0,-999.0,78,-99.99,,,-99.99,,2013-01-08 10:42:00,
2013-01-08 05:52:00,33.0,27.0,30.34,SSE,166,0.0,-999.0,78,-99.99,,,-99.99,,2013-01-08 10:52:00,
2013-01-08 06:02:00,33.0,28.0,30.34,SSE,166,1.0,-999.0,80,-99.99,,,-99.99,,2013-01-08 11:02:00,
2013-01-08 06:12:00,33.0,28.0,30.34,SSE,166,1.0,-999.0,80,-99.99,,,-99.99,,2013-01-08 11:12:00,
2013-01-08 06:22:00,34.0,28.0,30.35,South,186,1.0,-999.0,79,-99.99,,,-99.99,,2013-01-08 11:22:00,
2013-01-08 06:33:00,34.0,28.0,30.35,South,185,2.0,-999.0,78,-99.99,,,-99.99,,2013-01-08 11:33:00,
2013-01-08 06:42:00,34.0,28.0,30.35,South,185,2.0,-999.0,78,-99.99,,,-99.99,,2013-01-08 11:42:00,
2013-01-08 06:53:00,34.0,28.0,30.35,South,183,3.0,-999.0,78,-99.99,,,-99.99,,2013-01-08 11:53:00,
2013-01-08 07:03:00,35.0,29.0,30.35,SSW,197,3.0,-999.0,77,-99.99,,,-99.99,,2013-01-08 12:03:00,
2013-01-08 07:12:00,35.0,29.0,30.35,SSW,197,3.0,-999.0,77,-99.99,,,-99.99,,2013-01-08 12:12:00,
2013-01-08 07:22:00,35.0,29.0,30.35,SSW,195,3.0,-999.0,77,-99.99,,,-99.99,,2013-01-08 12:22:00,
2013-01-08 07:33:00,35.0,29.0,30.35,SSW,195,3.0,-999.0,77,-99.99,,,-99.99,,2013-01-08 12:33:00,
2013-01-08 07:43:00,35.0,29.0,30.35,SSW,195,3.0,-999.0,77,-99.99,,,-99.99,,2013-01-08 12:43:00,
2013-01-08 07:53:00,35.0,29.0,30.36,South,190,3.0,-999.0,77,-99.99,,,-99.99,,2013-01-08 12:53:00,
2013-01-08 08:03:00,35.0,28.0,30.37,South,190,2.0,-999.0,76,-99.99,,,-99.99,,2013-01-08 13:03:00,
2013-01-08 08:13:00,35.0,28.0,30.37,South,190,2.0,-999.0,76,-99.99,,,-99.99,,2013-01-08 13:13:00,
2013-01-08 08:22:00,36.0,29.0,30.38,South,185,3.0,-999.0,76,-99.99,,,-99.99,,2013-01-08 13:22:00,
2013-01-08 08:33:00,37.0,30.0,30.39,South,190,3.0,-999.0,75,-99.99,,,-99.99,,2013-01-08 13:33:00,
2013-01-08 08:43:00,37.0,30.0,30.39,South,190,3.0,-999.0,75,-99.99,,,-99.99,,2013-01-08 13:43:00,
2013-01-08 08:52:00,37.0,30.0,30.39,South,190,3.0,-999.0,75,-99.99,,,-99.99,,2013-01-08 13:52:00,
2013-01-08 09:03:00,38.0,30.0,30.39,SSW,200,5.0,-999.0,72,-99.99,,,-99.99,,2013-01-08 14:03:00,
2013-01-08 09:13:00,38.0,30.0,30.39,SSW,200,5.0,-999.0,72,-99.99,,,-99.99,,2013-01-08 14:13:00,
2013-01-08 09:23:00,39.0,30.0,30.39,South,183,3.0,-999.0,71,-99.99,,,-99.99,,2013-01-08 14:23:00,
2013-01-08 09:33:00,39.0,30.0,30.40,SSW,200,4.0,-999.0,71,-99.99,,,-99.99,,2013-01-08 14:33:00,
2013-01-08 09:43:00,39.0,30.0,30.40,SSW,200,4.0,-999.0,71,-99.99,,,-99.99,,2013-01-08 14:43:00,
2013-01-08 09:53:00,40.0,31.0,30.40,SSW,194,4.0,-999.0,71,-99.99,,,-99.99,,2013-01-08 14:53:00,
2013-01-08 10:03:00,40.0,31.0,30.40,SW,235,5.0,-999.0,71,-99.99,,,-99.99,,2013-01-08 15:03:00,
2013-01-08 10:12:00,40.0,31.0,30.40,SW,235,5.0,-999.0,71,-99.99,,,-99.99,,2013-01-08 15:12:00,
2013-01-08 10:22:00,41.0,32.0,30.39,WSW,251,6.0,-999.0,69,-99.99,,,-99.99,,2013-01-08 15:22:00,
2013-01-08 10:33:00,42.0,32.0,30.39,SSW,203,5.0,-999.0,67,-99.99,,,-99.99,,2013-01-08 15:33:00,
2013-01-08 10:43:00,42.0,32.0,30.39,SSW,203,5.0,-999.0,67,-99.99,,,-99.99,,2013-01-08 15:43:00,
2013-01-08 10:53:00,43.0,32.0,30.39,SSW,195,5.0,-999.0,65,-99.99,,,-99.99,,2013-01-08 15:53:00,
2013-01-08 11:03:00,44.0,32.0,30.39,SSW,198,6.0,-999.0,62,-99.99,,,-99.99,,2013-01-08 16:03:00,
2013-01-08 11:13:00,44.0,32.0,30.39,SSW,198,6.0,-999.0,62,-99.99,,,-99.99,,2013-01-08 16:13:00,
2013-01-08 11:23:00,44.0,31.0,30.38,WSW,245,6.0,-999.0,60,-99.99,,,-99.99,,2013-01-08 16:23:00,
2013-01-08 11:34:00,45.0,31.0,30.37,SW,233,6.0,-999.0,58,-99.99,,,-99.99,,2013-01-08 16:34:00,
2013-01-08 11:43:00,45.0,31.0,30.37,SW,233,6.0,-999.0,58,-99.99,,,-99.99,,2013-01-08 16:43:00,
2013-01-08 11:52:00,45.0,31.0,30.36,SSW,197,5.0,-999.0,58,-99.99,,,-99.99,,2013-01-08 16:52:00,
2013-01-08 12:03:00,45.0,30.0,30.35,SW,229,6.0,-999.0,56,-99.99,,,-99.99,,2013-01-08 17:03:00,
2013-01-08 12:13:00,45.0,30.0,30.35,SW,229,6.0,-999.0,56,-99.99,,,-99.99,,2013-01-08 17:13:00,
2013-01-08 12:23:00,46.0,32.0,30.34,South,171,7.0,-999.0,57,-99.99,,,-99.99,,2013-01-08 17:23:00,
2013-01-08 12:34:00,46.0,32.0,30.33,SSW,209,5.0,-999.0,57,-99.99,,,-99.99,,2013-01-08 17:34:00,
2013-01-08 12:43:00,46.0,32.0,30.33,SSW,209,5.0,-999.0,57,-99.99,,,-99.99,,2013-01-08 17:43:00,
2013-01-08 12:53:00,46.0,32.0,30.32,SSW,210,8.0,-999.0,57,-99.99,,,-99.99,,2013-01-08 17:53:00,
2013-01-08 13:04:00,46.0,32.0,30.32,SSW,213,8.0,-999.0,58,-99.99,,,-99.99,,2013-01-08 18:04:00,
2013-01-08 13:13:00,46.0,32.0,30.32,SSW,213,8.0,-999.0,58,-99.99,,,-99.99,,2013-01-08 18:13:00,
2013-01-08 13:23:00,47.0,32.0,30.31,WSW,256,8.0,-999.0,56,-99.99,,,-99.99,,2013-01-08 18:23:00,
2013-01-08 13:33:00,47.0,32.0,30.31,SSW,211,7.0,-999.0,56,-99.99,,,-99.99,,2013-01-08 18:33:00,
2013-01-08 13:43:00,47.0,32.0,30.31,SSW,211,7.0,-999.0,56,-99.99,,,-99.99,,2013-01-08 18:43:00,
2013-01-08 13:53:00,48.0,33.0,30.31,SW,227,6.0,-999.0,55,-99.99,,,-99.99,,2013-01-08 18:53:00,
2013-01-08 14:03:00,48.0,32.0,30.31,SW,229,4.0,-999.0,54,-99.99,,,-99.99,,2013-01-08 19:03:00,
2013-01-08 14:12:00,48.0,32.0,30.31,SW,229,4.0,-999.0,54,-99.99,,,-99.99,,2013-01-08 19:12:00,
2013-01-08 14:23:00,48.0,33.0,30.31,SW,230,5.0,-999.0,55,-99.99,,,-99.99,,2013-01-08 19:23:00,
2013-01-08 14:33:00,48.0,33.0,30.31,SW,229,8.0,-999.0,55,-99.99,,,-99.99,,2013-01-08 19:33:00,
2013-01-08 14:43:00,48.0,33.0,30.31,SW,229,8.0,-999.0,55,-99.99,,,-99.99,,2013-01-08 19:43:00,
2013-01-08 14:53:00,48.0,32.0,30.31,SSW,207,6.0,-999.0,54,-99.99,,,-99.99,,2013-01-08 19:53:00,
2013-01-08 15:03:00,48.0,32.0,30.31,WSW,255,6.0,-999.0,54,-99.99,,,-99.99,,2013-01-08 20:03:00,
2013-01-08 15:12:00,48.0,32.0,30.31,WSW,255,6.0,-999.0,54,-99.99,,,-99.99,,2013-01-08 20:12:00,
2013-01-08 15:23:00,48.0,32.0,30.31,SSW,195,6.0,-999.0,54,-99.99,,,-99.99,,2013-01-08 20:23:00,
2013-01-08 15:33:00,48.0,33.0,30.31,SW,221,4.0,-999.0,55,-99.99,,,-99.99,,2013-01-08 20:33:00,
2013-01-08 15:43:00,48.0,33.0,30.31,SW,221,4.0,-999.0,55,-99.99,,,-99.99,,2013-01-08 20:43:00,
2013-01-08 15:53:00,49.0,34.0,30.31,SSW,193,2.0,-999.0,55,-99.99,,,-99.99,,2013-01-08 20:53:00,
2013-01-08 16:03:00,48.0,32.0,30.31,SSW,201,3.0,-999.0,54,-99.99,,,-99.99,,2013-01-08 21:03:00,
2013-01-08 16:13:00,48.0,32.0,30.31,SSW,201,3.0,-999.0,54,-99.99,,,-99.99,,2013-01-08 21:13:00,
2013-01-08 16:23:00,48.0,33.0,30.30,SSW,201,2.0,-999.0,55,-99.99,,,-99.99,,2013-01-08 21:23:00,
2013-01-08 16:33:00,47.0,33.0,30.30,South,180,5.0,-999.0,57,-99.99,,,-99.99,,2013-01-08 21:33:00,
2013-01-08 16:43:00,47.0,33.0,30.30,South,180,5.0,-999.0,57,-99.99,,,-99.99,,2013-01-08 21:43:00,
2013-01-08 16:53:00,46.0,32.0,30.30,SSW,195,5.0,-999.0,59,-99.99,,,-99.99,,2013-01-08 21:53:00,
2013-01-08 17:03:00,46.0,32.0,30.30,SW,225,4.0,-999.0,59,-99.99,,,-99.99,,2013-01-08 22:03:00,
2013-01-08 17:12:00,46.0,32.0,30.30,SW,225,4.0,-999.0,59,-99.99,,,-99.99,,2013-01-08 22:12:00,
2013-01-08 17:23:00,45.0,32.0,30.31,SSW,192,3.0,-999.0,60,-99.99,,,-99.99,,2013-01-08 22:23:00,
2013-01-08 17:33:00,45.0,32.0,30.31,SW,219,2.0,-999.0,61,-99.99,,,-99.99,,2013-01-08 22:33:00,
2013-01-08 17:43:00,45.0,32.0,30.31,SW,219,2.0,-999.0,61,-99.99,,,-99.99,,2013-01-08 22:43:00,
2013-01-08 17:52:00,44.0,32.0,30.31,SW,219,1.0,-999.0,62,-99.99,,,-99.99,,2013-01-08 22:52:00,
2013-01-08 18:03:00,44.0,32.0,30.31,WSW,244,1.0,-999.0,63,-99.99,,,-99.99,,2013-01-08 23:03:00,
2013-01-08 18:13:00,44.0,32.0,30.31,WSW,244,1.0,-999.0,63,-99.99,,,-99.99,,2013-01-08 23:13:00,
2013-01-08 18:22:00,44.0,32.0,30.32,WSW,240,1.0,-999.0,63,-99.99,,,-99.99,,2013-01-08 23:22:00,
2013-01-08 18:33:00,44.0,32.0,30.32,WSW,240,1.0,-999.0,63,-99.99,,,-99.99,,2013-01-08 23:33:00,
2013-01-08 18:43:00,44.0,32.0,30.32,WSW,240,1.0,-999.0,63,-99.99,,,-99.99,,2013-01-08 23:43:00,
2013-01-08 18:52:00,42.0,32.0,30.32,SW,227,0.0,-999.0,68,-99.99,,,-99.99,,2013-01-08 23:52:00,
2013-01-08 19:03:00,42.0,33.0,30.33,SW,227,0.0,-999.0,69,-99.99,,,-99.99,,2013-01-09 00:03:00,
2013-01-08 19:13:00,42.0,33.0,30.33,SW,227,0.0,-999.0,69,-99.99,,,-99.99,,2013-01-09 00:13:00,
2013-01-08 19:22:00,41.0,32.0,30.33,SW,227,0.0,-999.0,71,-99.99,,,-99.99,,2013-01-09 00:22:00,
2013-01-08 19:33:00,41.0,33.0,30.34,SW,227,1.0,-999.0,74,-99.99,,,-99.99,,2013-01-09 00:33:00,
2013-01-08 19:43:00,41.0,33.0,30.34,SW,227,1.0,-999.0,74,-99.99,,,-99.99,,2013-01-09 00:43:00,
2013-01-08 19:52:00,40.0,32.0,30.34,SW,227,1.0,-999.0,74,-99.99,,,-99.99,,2013-01-09 00:52:00,
2013-01-08 20:02:00,41.0,33.0,30.33,SW,227,1.0,-999.0,74,-99.99,,,-99.99,,2013-01-09 01:02:00,
2013-01-08 20:12:00,41.0,33.0,30.33,SW,227,1.0,-999.0,74,-99.99,,,-99.99,,2013-01-09 01:12:00,
2013-01-08 20:22:00,41.0,33.0,30.34,SW,226,3.0,-999.0,72,-99.99,,,-99.99,,2013-01-09 01:22:00,
2013-01-08 20:33:00,42.0,33.0,30.34,SW,227,2.0,-999.0,71,-99.99,,,-99.99,,2013-01-09 01:33:00,
2013-01-08 20:42:00,42.0,33.0,30.34,SW,227,2.0,-999.0,71,-99.99,,,-99.99,,2013-01-09 01:42:00,
2013-01-08 20:52:00,41.0,32.0,30.34,SW,226,1.0,-999.0,71,-99.99,,,-99.99,,2013-01-09 01:52:00,
2013-01-08 21:02:00,41.0,33.0,30.35,SW,226,2.0,-999.0,73,-99.99,,,-99.99,,2013-01-09 02:02:00,
2013-01-08 21:12:00,41.0,33.0,30.35,SW,226,2.0,-999.0,73,-99.99,,,-99.99,,2013-01-09 02:12:00,
2013-01-08 21:22:00,41.0,33.0,30.35,SW,226,1.0,-999.0,72,-99.99,,,-99.99,,2013-01-09 02:22:00,
2013-01-08 21:33:00,41.0,33.0,30.35,SW,226,2.0,-999.0,72,-99.99,,,-99.99,,2013-01-09 02:33:00,
2013-01-08 21:43:00,41.0,33.0,30.35,SW,226,2.0,-999.0,72,-99.99,,,-99.99,,2013-01-09 02:43:00,
2013-01-08 21:52:00,41.0,33.0,30.34,SW,226,2.0,-999.0,72,-99.99,,,-99.99,,2013-01-09 02:52:00,
2013-01-08 22:03:00,41.0,33.0,30.34,SW,226,2.0,-999.0,73,-99.99,,,-99.99,,2013-01-09 03:03:00,
2013-01-08 22:12:00,41.0,33.0,30.34,SW,226,2.0,-999.0,73,-99.99,,,-99.99,,2013-01-09 03:12:00,
2013-01-08 22:22:00,41.0,33.0,30.34,SW,226,2.0,-999.0,73,-99.99,,,-99.99,,2013-01-09 03:22:00,
2013-01-08 22:33:00,41.0,33.0,30.34,SW,226,2.0,-999.0,73,-99.99,,,-99.99,,2013-01-09 03:33:00,
2013-01-08 22:43:00,41.0,33.0,30.34,SW,226,2.0,-999.0,73,-99.99,,,-99.99,,2013-01-09 03:43:00,
2013-01-08 22:52:00,40.0,32.0,30.34,SW,226,0.0,-999.0,72,-99.99,,,-99.99,,2013-01-09 03:52:00,
2013-01-08 23:02:00,40.0,32.0,30.35,SW,226,1.0,-999.0,73,-99.99,,,-99.99,,2013-01-09 04:02:00,
2013-01-08 23:12:00,40.0,32.0,30.35,SW,226,1.0,-999.0,73,-99.99,,,-99.99,,2013-01-09 04:12:00,
2013-01-08 23:22:00,39.0,31.0,30.35,SW,226,1.0,-999.0,73,-99.99,,,-99.99,,2013-01-09 04:22:00,
2013-01-08 23:33:00,39.0,31.0,30.35,SW,226,0.0,-999.0,74,-99.99,,,-99.99,,2013-01-09 04:33:00,
2013-01-08 23:43:00,38.0,31.0,30.35,SW,226,1.0,-999.0,75,-99.99,,,-99.99,,2013-01-09 04:43:00,
2013-01-08 23:52:00,38.0,31.0,30.35,SW,226,1.0,-999.0,75,-99.99,,,-99.99,,2013-01-09 04:52:00,